This is the latest recevied weather packets stored in our database for station/object KD7JB. If no packets are shown the sender has not sent any weather packets the latest 10 day(s).
| Time | Temp. | Humidity | Pressure | Rain* | Wind** | Luminosity | Snow |
|---|---|---|---|---|---|---|---|
| 1777703256 | 12.78° C | 52% | 1178.2 hPa | 0 mm | - | 0 W/m² | - |
| 1777702954 | 12.78° C | 52% | 1178.4 hPa | 0 mm | - | 0 W/m² | - |
| 1777702652 | 12.78° C | 52% | 1178.2 hPa | 0 mm | - | 0 W/m² | - |
| 1777702349 | 12.78° C | 50% | 1178.2 hPa | 0 mm | - | 0 W/m² | - |
| 1777702044 | 13.33° C | 50% | 1178.2 hPa | 0 mm | - | 0 W/m² | - |
| 1777701740 | 13.89° C | 49% | 1178.1 hPa | 0 mm | - | 0 W/m² | - |
| 1777701439 | 13.89° C | 47% | 1178.2 hPa | 0 mm | - | 0 W/m² | - |
| 1777701136 | 13.89° C | 48% | 1178.2 hPa | 0 mm | - | 0 W/m² | - |
| 1777700835 | 13.89° C | 48% | 1178.2 hPa | 0 mm | - | 0 W/m² | - |
| 1777700532 | 13.89° C | 49% | 1178.2 hPa | 0 mm | - | 0 W/m² | - |
| 1777700230 | 13.89° C | 48% | 1178.3 hPa | 0 mm | - | 0 W/m² | - |
| 1777699927 | 14.44° C | 48% | 1178.2 hPa | 0 mm | - | 0 W/m² | - |
| 1777699625 | 14.44° C | 48% | 1178.2 hPa | 0 mm | - | 0 W/m² | - |
| 1777699323 | 14.44° C | 47% | 1178.2 hPa | 0 mm | - | 0 W/m² | - |
| 1777699020 | 14.44° C | 46% | 1178.1 hPa | 0 mm | - | 0 W/m² | - |
| 1777698718 | 13.89° C | 46% | 1178.2 hPa | 0 mm | - | 0 W/m² | - |
| 1777698414 | 13.89° C | 46% | 1178.1 hPa | 0 mm | - | 0 W/m² | - |
| 1777698111 | 13.89° C | 46% | 1178.1 hPa | 0 mm | - | 0 W/m² | - |
| 1777697807 | 13.89° C | 47% | 1178.3 hPa | 0 mm | - | 0 W/m² | - |
| 1777697505 | 13.89° C | 48% | 1178.3 hPa | 0 mm | - | 0 W/m² | - |
| 1777697201 | 13.89° C | 48% | 1178.2 hPa | 0 mm | - | 0 W/m² | - |
| 1777696898 | 13.89° C | 47% | 1178.2 hPa | 0 mm | - | 0 W/m² | - |
| 1777696596 | 13.89° C | 47% | 1178.1 hPa | 0 mm | - | 0 W/m² | - |
| 1777696293 | 13.33° C | 48% | 1178 hPa | 0 mm | - | 0 W/m² | - |
| 1777695992 | 13.33° C | 50% | 1178.1 hPa | 0 mm | - | 0 W/m² | - |
* Rain latest hour (hover to see other rain measurements)
** Current wind speed in m/s (hover to see current wind gust speed)